User: anonymous   Login
Location: Petruro
(41.0333°N, 14.7833°E)
Time: 22:50:09
(UTC+00:00)
Language:

S3M - Orbit

View from above orbital plane
View from above orbital plane
View from above satellite
View from above satellite

Ground track
Ground track

The orbit data is extracted from the following two-line orbital elements,

1 12508U 81053B   21262.44659510  .00000042  00000-0  27487-4 0  9998
2 12508  82.9555  71.0284 0037530 174.9362 185.2182 13.76377216 29173
Epoch (UTC): 19 September 2021 10:43:05
Eccentricity: 0.0037530
inclination: 82.9555°
perigee height: 949 km
apogee height: 1004 km
right ascension of ascending node: 71.0284°
argument of perigee: 174.9362°
revolutions per day: 13.76377216
mean anomaly at epoch: 185.2182°
orbit number at epoch: 2917

The dashed part of the orbit path shows where the satellite is in the earth's shadow,  

DLR